Regional Weather Roundup
Issued by NWS Bismarck, ND

Home | Current Version | Previous Version | Text Only | Print | Product List | Glossary On
Versions: 1 2 3 4 5 6 7 8 9 10 11 12 13 14 15 16 17 18 19 20 21 22 23 24 25 26 27 28 29 30 31 32 33 34 35 36 37 38 39 40 41 42 43 44 45 46 47 48 49 50
000
ASUS43 KBIS 250010
RWRBIS

NWR BROADCAST TEXT
NATIONAL WEATHER SERVICE BISMARCK ND
700 PM CDT SUN JUL 24 2016

NOTE: "FAIR" INDICATES FEW OR NO CLOUDS BELOW 12,000 FEET WITH NO
SIGNIFICANT WEATHER AND/OR OBSTRUCTIONS TO VISIBILITY.


CITY           SKY/WX    TMP DP  RH WIND       PRES   REMARKS
WILLISTON      SUNNY     88  50  27 NW7       29.98F
MINOT          SUNNY     83  57  41 NW9       29.98F
MINOT AFB      SUNNY     80  56  44 NW12      29.97F
BISMARCK       SUNNY     84  56  38 N8        30.02S
DICKINSON      SUNNY     82  46  28 W7        30.02F
GARRISON         N/A     80  56  43 NW6       30.01F
HETTINGER ARPT MOSUNNY   88  44  21 NE10      30.06F
JAMESTOWN      SUNNY     79  58  48 NW15      29.98S
CARRINGTON     FAIR      77  57  50 NW15G23   30.01S
HAZEN          FAIR      81  55  41 N7        30.03F
LINTON         FAIR      81  63  54 NW7       30.05S
MANDAN         FAIR      82  55  39 NW9       30.04S
OAKES            N/A    N/A N/A N/A MISG        N/A
STANLEY        FAIR      81  55  41 W7        30.03S
WATFORD CITY     N/A    N/A N/A N/A MISG        N/A
$$

CITY           SKY/WX    TMP DP  RH WIND       PRES   REMARKS
GRAND FORKS    MOSUNNY   79  60  52 W10       29.90S
GRAND FORKS AF SUNNY     78  58  50 NW12      29.92S
DEVILS LAKE    SUNNY     76  56  49 W20       29.96S
FARGO          SUNNY     80  57  45 NW13      29.94S
CAVALIER       FAIR      77  63  61 W7        29.89S
GRAFTON        FAIR      79  63  57 W15       29.91S
GWINNER        FAIR      81  57  44 W15       29.99F
LANGDON        FAIR      75  63  64 NW10G18   29.95R
ROLLA            N/A     73  55  53 W14G20    29.98R
$$

CITY           SKY/WX    TMP DP  RH WIND       PRES   REMARKS
ABERDEEN       SUNNY     83  56  39 NW10      30.01S
MOBRIDGE       SUNNY     87  52  29 NE6       30.01F
BUFFALO          N/A     90  41  18 S13G18    29.99F
RAPID CITY     SUNNY     86  47  25 S8        30.08S
GLASGOW        SUNNY     86  47  25 NW6       29.97S
SIDNEY         SUNNY     85  58  39 S6        29.98F
WOLF POINT     MOSUNNY   90  49  24 W7G20     29.95F
GLENDIVE       MOSUNNY   87  48  25 S9        30.00F
MILES CITY     SUNNY     93  40  15 VRB3      29.97F
BAKER          SUNNY     87  46  24 E9        30.04F
$$

CITY           SKY/WX    TMP DP  RH WIND       PRES   REMARKS
BILLINGS       SUNNY     89  37  16 SW6       30.02F
GREAT FALLS    SUNNY     85  32  15 S6        30.01F
REGINA         MOSUNNY   77  55  47 NW7       29.98F
ESTEVAN        MOSUNNY   79  59  50 N9        29.99S
$$





USA.gov is the U.S. government's official web portal to all federal, state and local government web resources and services.